Home > Weather > Oran > Past weeks

Flag for Algeria Weather for the Past 2 Weeks in Oran, Algeria

Now
66 °F

Scattered clouds.


Feels Like: 66 °F
Forecast: 58 / 64 °F
Wind: 20 mph from West

Location: Oran / Es Senia

Current Time: Feb 9, 2016 at 5:52:18 PM

Latest Report: Feb 9, 2016 at 5:00 PM


Visibility: N/A

Pressure: 30.27 "Hg

Humidity: 46%

Dew point: 45 °F

Location of OranLocation

Historic Weather in Oran — Graph

°F

Oran Temperature Yesterday

Maximum temperature yesterday: 68 °F (at 3:30 PM)
Minimum temperature yesterday: 52 °F (at 3:30 AM)
Average temperature yesterday: 58 °F

High & Low Weather Summary for the Past Weeks

 TemperatureHumidityPressure
High73 °F (Feb 5, 2:30 PM)100% (Jan 25, 10:00 PM)30.60 "Hg (Jan 25, 10:00 PM)
Low39 °F (Feb 1, 7:30 AM)38% (Feb 1, 2:00 PM)30.09 "Hg (Feb 7, 6:00 AM)
Average56 °F84%30.36 "Hg
* Reported Jan 25 4:00 PM — Feb 9 4:30 PM, Oran, Weather by CustomWeather, © 2016

Note: Actual official high and low records may vary slightly from our data, if they occured in-between our weather recording intervals... More about our weather records

Advertising

Oran Weather History for the Previous 24 Hours

 ConditionsComfort  
Time TempWeatherWind HumidityBarometerVisibility
4:30 PM
Tue, Feb 9
68 °FScattered clouds.28 mph53%30.24 "HgN/A
4:00 PM68 °FScattered clouds.29 mph53%30.27 "HgN/A
3:30 PM68 °FScattered clouds.25 mph56%30.30 "HgN/A
3:00 PM68 °FScattered clouds.25 mph56%30.30 "HgN/A
2:30 PM66 °FScattered clouds.25 mph60%30.27 "HgN/A
2:00 PM66 °FScattered clouds.28 mph60%30.30 "HgN/A
1:30 PM66 °FPartly sunny.28 mph68%30.30 "HgN/A
1:00 PM63 °FPartly sunny.28 mph77%30.30 "HgN/A
12:30 PM64 °FPartly sunny.25 mph73%30.33 "HgN/A
11:30 AM61 °FBroken clouds.17 mph72%30.30 "HgN/A
11:00 AM61 °FBroken clouds.22 mph72%30.30 "HgN/A
10:30 AM59 °FBroken clouds.16 mph77%30.33 "HgN/A
10:00 AM55 °FBroken clouds.10 mph88%30.33 "HgN/A
9:00 AM52 °FBroken clouds.6 mph88%30.30 "HgN/A
8:30 AM50 °FBroken clouds.6 mph94%30.30 "Hg5 mi
8:00 AM48 °FPartly sunny.2 mph100%30.30 "Hg5 mi
7:30 AM48 °FPassing clouds.5 mph94%30.30 "Hg4 mi
7:00 AM46 °FPassing clouds.2 mph100%30.30 "Hg4 mi
6:30 AM46 °FPassing clouds.5 mph100%30.30 "Hg4 mi
6:00 AM46 °FPassing clouds.2 mph100%30.30 "Hg4 mi
5:30 AM45 °FPassing clouds.2 mph93%30.27 "Hg6 mi
4:30 AM46 °FPassing clouds.No wind93%30.30 "HgN/A
4:00 AM46 °FPassing clouds.No wind93%30.30 "HgN/A
3:30 AM46 °FPassing clouds.No wind93%30.30 "HgN/A
3:00 AM46 °FPassing clouds.5 mph93%30.30 "HgN/A
2:30 AM46 °FPassing clouds.5 mph93%30.33 "HgN/A
2:00 AM48 °FPassing clouds.No wind94%30.33 "HgN/A
1:30 AM48 °FClear.No wind94%30.36 "Hg10 mi
1:00 AM50 °FClear.2 mph94%30.36 "Hg10 mi
12:30 AM50 °FClear.2 mph94%30.36 "Hg10 mi
12:00 AM50 °FClear.2 mph94%30.36 "Hg10 mi
11:00 PM
Mon, Feb 8
52 °FClear.No wind94%30.36 "Hg10 mi
10:30 PM54 °FClear.5 mph94%30.36 "Hg10 mi
10:00 PM54 °FClear.5 mph94%30.36 "Hg10 mi
9:30 PM55 °FClear.9 mph88%30.36 "Hg10 mi
9:00 PM55 °FClear.9 mph88%30.36 "Hg10 mi
8:30 PM55 °FClear.9 mph88%30.36 "Hg10 mi
8:00 PM55 °FClear.9 mph88%30.36 "Hg10 mi
7:30 PM57 °FPassing clouds.7 mph77%30.36 "HgN/A
7:00 PM59 °FPassing clouds.7 mph72%30.36 "HgN/A
6:30 PM61 °FScattered clouds.7 mph68%30.36 "HgN/A
6:00 PM63 °FScattered clouds.7 mph64%30.36 "HgN/A
5:30 PM64 °FSunny.14 mph60%30.33 "Hg10 mi
5:00 PM66 °FSunny.15 mph56%30.33 "Hg10 mi
Weather by CustomWeather, © 2016

See weather overviewHow to use our weather pages